GW7334 Weather Reports


Display with metric or nautical units.
time (UTC)temp
F
wind
direction
speed
MPH
gust
MPH
rain 1hr
in
rain 24hr
in
rain mn
in
humidity
%
barometer
mb
20260504130435 90 138 7.0 8.0 0.00 0.00 0.00 50 1004.7
20260504110322 94 144 3.0 4.0 0.00 0.00 0.00 48 1006.0
20260504100240 92 135 5.0 9.0 0.00 0.00 0.00 44 1006.8
20260504081633 91 146 4.0 8.0 0.00 0.00 0.00 45 1007.4
20260504081129 91 146 6.0 9.0 0.00 0.00 0.00 41 1007.4
20260504080626 91 145 8.0 9.0 0.00 0.00 0.00 39 1007.4
20260504080122 91 130 6.0 9.0 0.00 0.00 0.00 39 1007.5
20260504050439 94 203 0.0 2.0 0.00 0.00 0.00 29 1007.7
20260504045936 94 82 1.0 4.0 0.00 0.00 0.00 30 1007.5
20260504045431 94 5 2.0 3.0 0.00 0.00 0.00 30 1007.6
20260504044928 93 22 2.0 3.0 0.00 0.00 0.00 30 1007.5
20260504044425 93 15 2.0 3.0 0.00 0.00 0.00 30 1007.6
20260504043922 93 263 0.0 2.0 0.00 0.00 0.00 29 1007.6
20260504043419 92 82 0.0 0.0 0.00 0.00 0.00 29 1007.5
20260504042917 92 29 0.0 1.0 0.00 0.00 0.00 30 1007.6
20260504042414 92 195 0.0 1.0 0.00 0.00 0.00 30 1007.5
20260504041910 91 99 0.0 1.0 0.00 0.00 0.00 31 1007.4
20260504041406 90 270 0.0 1.0 0.00 0.00 0.00 32 1007.2
20260504040902 89 15 0.0 0.0 0.00 0.00 0.00 32 1007.4
20260504040400 89 270 0.0 0.0 0.00 0.00 0.00 34 1007.5
20260504035855 88 261 0.0 1.0 0.00 0.00 0.00 34 1007.3
20260504035353 88 206 1.0 3.0 0.00 0.00 0.00 36 1007.3
20260504034850 88 114 0.0 2.0 0.00 0.00 0.00 35 1007.4
20260504034347 87 180 0.0 0.0 0.00 0.00 0.00 34 1007.3
20260504033844 87 203 0.0 1.0 0.00 0.00 0.00 33 1007.2
20260504033342 87 180 0.0 0.0 0.00 0.00 0.00 32 1007.2
20260504032839 87 229 0.0 2.0 0.00 0.00 0.00 33 1007.2
20260504032336 89 114 0.0 1.0 0.00 0.00 0.00 33 1007.1
20260504031833 88 90 0.0 0.0 0.00 0.00 0.00 32 1007.0
20260504031330 86 151 0.0 0.0 0.00 0.00 0.00 33 1007.0
20260504030826 85 0 0.0 2.0 0.00 0.00 0.00 33 1007.2
20260504030324 84 6 1.0 2.0 0.00 0.00 0.00 33 1007.1
20260504025819 85 352 1.0 2.0 0.00 0.00 0.00 33 1007.1
20260504025317 84 246 0.0 3.0 0.00 0.00 0.00 33 1006.9
20260504024813 84 304 3.0 4.0 0.00 0.00 0.00 33 1006.9
20260504024310 84 296 3.0 3.0 0.00 0.00 0.00 33 1006.7
20260504023807 84 278 1.0 3.0 0.00 0.00 0.00 33 1006.9
20260504023303 83 287 2.0 3.0 0.00 0.00 0.00 34 1006.7
20260504022759 83 270 2.0 3.0 0.00 0.00 0.00 34 1006.7
20260504022255 83 279 3.0 3.0 0.00 0.00 0.00 34 1006.7
20260504021752 84 290 0.0 3.0 0.00 0.00 0.00 34 1006.8
20260504021250 84 286 3.0 4.0 0.00 0.00 0.00 33 1006.8
20260504020747 83 246 0.0 2.0 0.00 0.00 0.00 35 1006.7
20260504020243 84 283 2.0 4.0 0.00 0.00 0.00 34 1006.4
20260504015739 83 262 3.0 3.0 0.00 0.00 0.00 35 1006.6
20260504015236 83 297 1.0 2.0 0.00 0.00 0.00 35 1006.6
20260504014732 83 310 3.0 3.0 0.00 0.00 0.00 35 1006.5
20260504014228 83 258 2.0 3.0 0.00 0.00 0.00 35 1006.6
20260504013726 84 270 0.0 2.0 0.00 0.00 0.00 35 1006.5
20260504013223 83 354 1.0 4.0 0.00 0.00 0.00 35 1006.5
20260504012720 83 295 2.0 2.0 0.00 0.00 0.00 35 1006.4
20260504012218 84 319 2.0 4.0 0.00 0.00 0.00 35 1006.5
20260504011715 84 281 3.0 4.0 0.00 0.00 0.00 34 1006.5
20260504011211 84 292 3.0 5.0 0.00 0.00 0.00 35 1006.4
20260504010707 84 286 4.0 4.0 0.00 0.00 0.00 35 1006.3
20260504010203 83 283 4.0 4.0 0.00 0.00 0.00 35 1006.5
20260504005700 83 279 2.0 4.0 0.00 0.00 0.00 36 1006.5
20260504005157 83 308 2.0 4.0 0.00 0.00 0.00 36 1006.5
20260504004655 84 315 2.0 5.0 0.00 0.00 0.00 35 1006.3
20260504004152 84 330 3.0 5.0 0.00 0.00 0.00 35 1006.5
20260504003648 84 282 3.0 5.0 0.00 0.00 0.00 34 1006.3
20260504003145 84 299 3.0 3.0 0.00 0.00 0.00 34 1006.4
20260504002641 84 315 0.0 3.0 0.00 0.00 0.00 35 1006.5
20260504002139 84 325 1.0 3.0 0.00 0.00 0.00 34 1006.2
20260504001637 84 310 0.0 3.0 0.00 0.00 0.00 35 1006.4
20260504001132 84 339 3.0 4.0 0.00 0.00 0.00 35 1006.5
20260504000630 84 346 3.0 4.0 0.00 0.00 0.00 35 1006.3
20260504000127 85 289 2.0 4.0 0.00 0.00 0.00 35 1006.1
20260503235625 86 321 3.0 3.0 0.00 0.00 0.00 35 1006.2
20260503235121 86 321 3.0 4.0 0.00 0.00 0.00 34 1006.2
20260503234620 86 290 3.0 4.0 0.00 0.00 0.00 34 1006.2
20260503234118 87 12 0.0 3.0 0.00 0.00 0.00 34 1006.3
20260503233614 86 306 1.0 3.0 0.00 0.00 0.00 35 1006.1
20260503233110 87 281 3.0 4.0 0.00 0.00 0.00 33 1006.2
20260503232607 87 312 2.0 3.0 0.00 0.00 0.00 34 1006.2
20260503232104 87 0 0.0 0.0 0.00 0.00 0.00 35 1006.3
20260503231602 87 0 0.0 0.0 0.00 0.00 0.00 35 1006.1
20260503231059 87 355 2.0 2.0 0.00 0.00 0.00 35 1006.1
20260503230555 87 288 2.0 2.0 0.00 0.00 0.00 35 1006.3
20260503230053 87 0 0.0 3.0 0.00 0.00 0.00 36 1006.2
20260503225550 87 292 2.0 2.0 0.00 0.00 0.00 37 1006.2
20260503225044 87 270 0.0 2.0 0.00 0.00 0.00 36 1006.1
20260503224543 87 281 2.0 3.0 0.00 0.00 0.00 37 1006.2
20260503224040 87 315 3.0 3.0 0.00 0.00 0.00 36 1006.3
20260503223538 88 270 0.0 1.0 0.00 0.00 0.00 36 1006.2
20260503223033 88 246 0.0 2.0 0.00 0.00 0.00 37 1006.3
20260503222532 88 270 1.0 3.0 0.00 0.00 0.00 36 1006.3
20260503222029 87 262 0.0 0.0 0.00 0.00 0.00 36 1006.1
20260503221527 87 260 0.0 2.0 0.00 0.00 0.00 36 1006.2
20260503221025 87 243 0.0 2.0 0.00 0.00 0.00 37 1006.2
20260503220520 88 270 0.0 0.0 0.00 0.00 0.00 36 1006.2
20260503220017 89 240 1.0 2.0 0.00 0.00 0.00 36 1006.4
20260503215515 88 228 2.0 2.0 0.00 0.00 0.00 37 1006.5
20260503215011 87 126 1.0 2.0 0.00 0.00 0.00 38 1006.4
20260503214510 87 161 3.0 3.0 0.00 0.00 0.00 38 1006.5
20260503214006 88 238 3.0 3.0 0.00 0.00 0.00 37 1006.7
20260503213505 88 261 0.0 2.0 0.00 0.00 0.00 36 1006.6
20260503213001 89 285 1.0 2.0 0.00 0.00 0.00 35 1006.6
20260503212458 89 15 1.0 2.0 0.00 0.00 0.00 36 1006.7
20260503211955 88 291 3.0 3.0 0.00 0.00 0.00 36 1006.7
20260503211453 89 303 2.0 3.0 0.00 0.00 0.00 36 1007.0
20260503210948 89 270 0.0 3.0 0.00 0.00 0.00 36 1006.9
20260503210445 89 286 2.0 3.0 0.00 0.00 0.00 36 1006.8
20260503205945 89 315 3.0 4.0 0.00 0.00 0.00 36 1007.1
20260503205443 89 297 2.0 3.0 0.00 0.00 0.00 35 1007.0
20260503204939 89 296 3.0 4.0 0.00 0.00 0.00 35 1007.1
20260503204436 89 307 3.0 3.0 0.00 0.00 0.00 35 1007.1
20260503203933 89 297 3.0 4.0 0.00 0.00 0.00 35 1007.4
20260503203431 89 290 3.0 4.0 0.00 0.00 0.00 35 1007.1
20260503202927 89 278 2.0 3.0 0.00 0.00 0.00 36 1007.3
20260503202425 89 281 2.0 3.0 0.00 0.00 0.00 39 1007.2
20260503201924 89 334 4.0 4.0 0.00 0.00 0.00 39 1007.2
20260503201421 88 294 2.0 3.0 0.00 0.00 0.00 41 1007.3
20260503200918 86 318 3.0 3.0 0.00 0.00 0.00 47 1007.1
20260503200414 84 307 0.0 2.0 0.00 0.00 0.00 56 1007.2
20260503195911 82 232 2.0 2.0 0.00 0.00 0.00 66 1007.3
20260503195408 82 140 0.0 0.0 0.00 0.00 0.00 70 1007.3
20260503194905 82 149 3.0 3.0 0.00 0.00 0.00 71 1007.2
20260503194401 83 159 5.0 5.0 0.00 0.00 0.00 69 1007.2
20260503193857 82 254 0.0 0.0 0.00 0.00 0.00 69 1007.3
20260503193353 82 165 0.0 1.0 0.00 0.00 0.00 71 1007.2
20260503192849 82 165 1.0 3.0 0.00 0.00 0.00 72 1007.3
20260503192345 82 165 2.0 3.0 0.00 0.00 0.00 71 1007.5
20260503191841 83 131 4.0 5.0 0.00 0.00 0.00 67 1007.3
20260503191338 86 153 4.0 4.0 0.00 0.00 0.00 60 1007.2
20260503190835 85 254 0.0 2.0 0.00 0.00 0.00 62 1007.6
20260503190332 84 165 0.0 1.0 0.00 0.00 0.00 65 1007.6
20260503185829 83 175 0.0 0.0 0.00 0.00 0.00 66 1007.5
20260503185325 83 150 2.0 2.0 0.00 0.00 0.00 66 1007.4
20260503184826 83 164 0.0 0.0 0.00 0.00 0.00 66 1007.5
20260503184322 82 164 0.0 2.0 0.00 0.00 0.00 68 1007.3
20260503183818 82 147 0.0 0.0 0.00 0.00 0.00 69 1007.4
20260503183315 82 157 0.0 2.0 0.00 0.00 0.00 69 1007.6
20260503182812 82 147 3.0 3.0 0.00 0.00 0.00 68 1007.4
20260503182312 82 168 1.0 3.0 0.00 0.00 0.00 68 1007.4
20260503181808 82 154 3.0 3.0 0.00 0.00 0.00 68 1007.5
20260503181305 82 172 1.0 3.0 0.00 0.00 0.00 67 1007.7
20260503180801 82 176 2.0 3.0 0.00 0.00 0.00 66 1007.3
20260503180300 82 166 1.0 3.0 0.00 0.00 0.00 66 1007.2
20260503175755 82 151 2.0 3.0 0.00 0.00 0.00 66 1007.3
20260503175254 82 152 3.0 3.0 0.00 0.00 0.00 67 1007.1
20260503174755 82 156 2.0 3.0 0.00 0.00 0.00 67 1006.9
20260503174253 82 147 3.0 3.0 0.00 0.00 0.00 68 1007.2
20260503173754 82 154 3.0 4.0 0.00 0.00 0.00 68 1006.9
20260503173249 82 180 1.0 5.0 0.00 0.00 0.00 68 1007.1
20260503172746 82 148 3.0 4.0 0.00 0.00 0.00 68 1006.8
20260503172244 82 147 0.0 4.0 0.00 0.00 0.00 67 1006.8
20260503171740 82 172 0.0 4.0 0.00 0.00 0.00 67 1007.0
20260503171238 83 99 0.0 3.0 0.00 0.00 0.00 66 1006.9
20260503170734 84 151 2.0 5.0 0.00 0.00 0.00 65 1006.9
20260503170231 83 148 3.0 4.0 0.00 0.00 0.00 63 1006.7
20260503160153 84 132 2.0 6.0 0.00 0.00 0.00 59 1006.1
20260503150623 85 195 2.0 11.0 0.00 0.00 0.00 55 1005.9
20260503150119 86 140 5.0 11.0 0.00 0.00 0.00 54 1005.7